Regional Weather Roundup
Issued by NWS Cleveland, OH

Home | Current Version | Previous Version | Graphics & Text | Print | Product List | Glossary On
Versions: 1 2 3 4 5 6 7 8 9 10 11 12 13 14 15 16 17 18 19 20 21 22 23 24 25 26 27 28 29 30 31 32 33 34 35 36 37 38 39 40 41 42 43 44 45 46 47 48 49 50
000
ASUS41 KCLE 241210
RWRCLE
OHIO REGIONAL WEATHER ROUNDUP
NATIONAL WEATHER SERVICE WILMINGTON, OH
800 AM EDT SUN SEP 24 2017

NOTE: "FAIR" INDICATES FEW OR NO CLOUDS BELOW 12,000 FEET WITH NO
SIGNIFICANT WEATHER AND/OR OBSTRUCTIONS TO VISIBILITY.

OHZ001>008-015>018-024>027-034-035-043-044-241300-
   NORTHWEST OHIO

CITY           SKY/WX    TMP DP  RH WIND       PRES   REMARKS
DEFIANCE       FAIR      61  59  93 CALM      30.15R FOG
FINDLAY        FAIR      66  59  78 CALM      30.15R
TOLEDO EXPRESS FAIR      62  62 100 CALM      30.15R
TOLEDO EXEC    FAIR      64  60  87 CALM      30.16R
LIMA           FAIR      60  59  96 CALM      30.15S
$$

OHZ009>014-019>023-028>033-038-089-241300-
   NORTHEAST OHIO

CITY           SKY/WX    TMP DP  RH WIND       PRES   REMARKS
CLE-HOPKINS    FAIR      67  61  81 S5        30.19R
CLE-LAKEFRONT  FAIR      69  62  78 SE3       30.16R
CUY CO. ARPT   CLEAR     66  63  88 E5        30.19R
LORAIN-ELYRIA  FAIR      59  54  83 CALM      30.18R
ASHTABULA      FAIR      60  60 100 CALM      30.21R
AKRON-CANTON   FAIR      66  59  78 NE6       30.20R
WOOSTER        FAIR      57  56  96 CALM      30.19R
MANSFIELD      FAIR      63  59  87 SE6       30.18R
YOUNGSTOWN     FAIR      62  60  93 CALM      30.20R
$$

OHZ042-051>053-060>062-070>072-077>081-241300-
  SOUTHWEST OHIO

CITY           SKY/WX    TMP DP  RH WIND       PRES   REMARKS
CINC-COVINGTON FAIR      67  62  84 E6        30.11S
CINC-LUNKEN    FAIR      59  59 100 CALM      30.12S
HAMILTON       FAIR      58  58 100 CALM      30.13S
DAYTON         FAIR      63  57  81 NE3       30.15R
WRIGHT-PAT AFB FAIR      60  60 100 CALM      30.14R
DAYTON GENERAL FAIR      63  57  81 NE9       30.13R
WILMINGTON     FAIR      61  58  90 E6        30.14R
$$

OHZ036-037-039>041-045>050-054>059-063>069-073>076-082>088-241300-
  CENTRAL AND SOUTHEAST OHIO

CITY           SKY/WX    TMP DP  RH WIND       PRES   REMARKS
COLUMBUS       FAIR      65  59  81 CALM      30.14R
OSU AIRPORT    FAIR      65  58  78 E5        30.15R
BOLTON FIELD   CLEAR     61  57  88 CALM      30.16R
RICKENBACK AFB FAIR      60  58  94 NE6       30.15R
NEWARK         FAIR      58  56  93 CALM      30.16R
MARION         FAIR      60  56  86 E3        30.17R
LANCASTER      FAIR      55  55 100 CALM      30.16S FOG
ZANESVILLE     FAIR      60  57  89 CALM      30.17R
NEW PHILLY     FAIR      60  58  92 CALM      30.19R
$$



USA.gov is the U.S. government's official web portal to all federal, state and local government web resources and services.